1537531200.92,2398,21.75,74208.0,17.41,-18.17,-17.97,0,*79
1537531202.14,2399,21.81,74210.0,17.35,-18.21,-18.07,0,*78
1537531203.39,2400,21.81,74208.0,17.35,-17.63,-17.49,0,*73
1537531204.62,2401,21.81,74208.0,17.35,-17.49,-17.35,0,*71
1537531205.83,2402,21.81,74208.3,17.33,-16.93,-16.65,0,*76
1537531207.08,2403,21.81,74210.8,17.35,-16.31,-15.99,0,*79
1537531208.31,2404,21.81,74210.8,17.35,-16.89,-16.59,0,*72
1537531209.56,2405,21.81,74214.3,17.35,-17.31,-17.07,0,*7B
1537531210.78,2406,21.81,74208.5,17.33,-17.21,-16.93,0,*73
1537531212.0,2407,21.81,74210.5,17.33,-17.83,-17.63,0,*74
1537531213.2,2408,21.81,74208.3,17.33,-17.83,-17.69,0,*71
1537531214.42,2409,21.81,74210.3,17.31,-18.49,-18.21,0,*78
1537531215.64,2410,21.81,74214.0,17.29,-18.01,-17.73,0,*7D
1537531216.85,2411,21.81,74210.0,17.29,-18.21,-17.87,0,*75
1537531218.1,2412,21.81,74210.3,17.27,-17.49,-17.07,0,*71
1537531219.35,2413,21.75,74210.8,17.27,-18.21,-17.93,0,*7C
1537531220.59,2414,21.81,74214.5,17.27,-18.11,-18.01,0,*7C
1537531221.84,2415,21.81,74210.5,17.23,-18.07,-17.79,0,*7E
1537531223.1,2416,21.81,74208.3,17.21,-17.41,-17.07,0,*7B
1537531224.33,2417,21.81,74212.0,17.21,-17.07,-16.75,0,*7C
1537531225.58,2418,21.81,74212.0,17.23,-17.49,-17.03,0,*7B
1537531226.83,2419,21.81,74210.5,17.21,-17.93,-17.55,0,*7C
1537531228.07,2420,21.81,74210.5,17.17,-18.35,-17.93,0,*7A
1537531229.29,2421,21.81,74206.8,17.17,-18.25,-17.93,0,*7A
1537531230.48,2422,21.81,74210.5,17.17,-18.21,-17.87,0,*78
1537531231.73,2423,21.81,74208.3,17.15,-17.79,-17.49,0,*7B
1537531232.98,2424,21.81,74208.5,17.15,-18.01,-17.73,0,*75
1537531234.23,2425,21.75,74210.3,17.13,-17.97,-17.79,0,*78
1537531235.49,2426,21.81,74212.3,17.13,-17.97,-17.79,0,*7B
1537531236.69,2427,21.81,74210.8,17.09,-16.37,-16.03,0,*76
1537531237.91,2428,21.81,74210.5,17.11,-16.83,-16.41,0,*79
1537531239.11,2429,21.81,74208.8,17.09,-16.93,-16.55,0,*75
1537531240.36,2430,21.81,74208.3,17.11,-16.69,-16.41,0,*74
1537531241.62,2431,21.81,74206.3,17.11,-16.55,-16.17,0,*79
1537531242.87,2432,21.81,74208.0,17.11,-17.21,-16.97,0,*70
1537531244.13,2433,21.81,74208.0,17.11,-16.69,-16.55,0,*72
1537531245.38,2434,21.81,74204.8,17.11,-16.17,-15.75,0,*7D
1537531246.58,2435,21.81,74204.0,17.13,-16.93,-16.75,0,*71
1537531247.78,2436,21.81,74204.8,17.13,-16.37,-16.03,0,*7D
1537531249.06,2437,21.81,74204.8,17.15,-16.23,-15.81,0,*76
1537531250.27,2438,21.81,74204.0,17.13,-16.93,-16.59,0,*72
1537531251.52,2439,21.81,74202.8,17.13,-17.25,-17.03,0,*71
1537531252.75,2440,21.81,74204.8,17.13,-17.49,-17.07,0,*71
1537531254.0,2441,21.81,74204.8,17.11,-17.25,-16.93,0,*74
1537531255.22,2442,21.81,74202.0,17.09,-17.25,-16.93,0,*7E
1537531256.44,2443,21.81,74202.0,17.09,-17.11,-16.79,0,*7C
1537531257.64,2444,21.81,74204.0,17.09,-16.83,-16.41,0,*7A
1537531258.89,2445,21.81,74204.8,17.09,-16.69,-16.31,0,*78
1537531260.13,2446,21.81,74206.3,17.09,-16.41,-16.09,0,*7A
1537531261.35,2447,21.81,74204.0,17.09,-16.69,-16.37,0,*7C
1537531262.6,2448,21.81,74206.8,17.11,-17.21,-16.97,0,*7D
1537531263.85,2449,21.81,74202.3,17.11,-16.69,-16.37,0,*7B
1537531265.08,2450,21.81,74202.3,17.09,-16.09,-15.75,0,*79
1537531266.34,2451,21.81,74204.0,17.11,-16.09,-15.75,0,*71
1537531267.54,2452,21.81,74200.3,17.09,-16.37,-16.03,0,*74
1537531268.77,2453,21.81,74202.8,17.09,-15.63,-15.35,0,*71
1537531269.99,2454,21.75,74198.8,17.09,-16.93,-16.65,0,*7C
1537531271.24,2455,21.81,74200.8,17.09,-17.25,-17.11,0,*73
1537531272.46,2456,21.81,74200.0,17.07,-17.49,-17.25,0,*73
1537531273.68,2457,21.81,74204.3,17.07,-16.55,-16.27,0,*7D
1537531274.9,2458,21.81,74204.8,17.09,-15.49,-15.21,0,*77
1537531276.09,2459,21.81,74206.5,17.07,-15.99,-15.67,0,*77
1537531277.34,2460,21.81,74208.0,17.07,-15.39,-14.97,0,*79
1537531278.56,2461,21.81,74204.5,17.07,-16.45,-16.13,0,*7E
1537531279.81,2462,21.81,74210.0,17.09,-16.17,-16.09,0,*7F
1537531281.07,2463,21.81,74204.3,17.09,-16.23,-16.09,0,*79
1537531282.29,2464,21.81,74206.8,17.09,-17.59,-17.69,0,*75
1537531283.55,2465,21.81,74210.0,17.05,-17.35,-17.07,0,*7A
1537531284.77,2466,21.81,74208.3,17.07,-16.45,-16.51,0,*7F
1537531285.99,2467,21.81,74204.3,17.07,-17.17,-16.97,0,*72
1537531287.23,2468,21.81,74208.0,17.07,-17.79,-17.59,0,*76
1537531288.48,2469,21.81,74208.5,17.05,-17.69,-17.41,0,*7D
1537531289.72,2470,21.81,74204.8,17.05,-17.49,-17.17,0,*74
1537531290.98,2471,21.81,74206.5,16.99,-16.51,-16.17,0,*78
1537531292.22,2472,21.81,74208.3,17.01,-16.27,-15.99,0,*7F
1537531293.47,2473,21.81,74206.3,17.01,-15.75,-15.43,0,*7D
1537531294.69,2474,21.81,74208.0,16.99,-16.31,-16.03,0,*7E
1537531295.92,2475,21.81,74208.3,17.01,-15.53,-15.25,0,*7F
1537531297.14,2476,21.81,74206.3,17.01,-14.89,-14.61,0,*7B
1537531298.36,2477,21.81,74204.5,17.07,-14.55,-14.33,0,*7A
1537531299.58,2478,21.81,74206.5,17.07,-15.71,-15.43,0,*74
1537531300.8,2479,21.81,74204.5,17.07,-15.49,-15.21,0,*7A
1537531302.02,2480,21.81,74204.0,17.07,-15.35,-15.07,0,*73
1537531303.26,2481,21.81,74206.3,17.07,-15.57,-15.35,0,*77
1537531304.46,2482,21.81,74208.3,17.09,-15.29,-14.89,0,*75
1537531305.69,2483,21.81,74210.5,17.11,-14.89,-14.61,0,*70
1537531306.91,2484,21.81,74208.0,17.09,-15.63,-15.35,0,*7B
1537531308.13,2485,21.81,74208.3,17.09,-15.01,-14.65,0,*7A
1537531309.33,2486,21.81,74210.3,17.09,-15.07,-14.89,0,*7D
1537531310.57,2487,21.81,74204.5,17.11,-15.63,-15.53,0,*71
1537531311.81,2488,21.81,74206.0,17.11,-15.07,-15.01,0,*7B
1537531313.04,2489,21.81,74210.0,17.11,-14.89,-14.65,0,*7E
1537531314.29,2490,21.81,74208.3,17.11,-16.51,-16.41,0,*75
1537531315.52,2491,21.81,74210.5,17.09,-16.65,-16.55,0,*7F
1537531316.72,2492,21.81,74204.0,17.09,-16.93,-16.79,0,*7B
1537531317.97,2493,21.81,74210.8,17.09,-16.31,-16.09,0,*75
1537531319.19,2494,21.81,74206.3,17.09,-16.37,-16.23,0,*7C
1537531320.42,2495,21.81,74206.8,17.09,-17.07,-16.97,0,*70
1537531321.64,2496,21.81,74204.5,17.07,-17.45,-17.31,0,*76
1537531322.88,2497,21.81,74210.3,17.05,-16.59,-16.27,0,*7F
1537531324.12,2498,21.81,74206.5,17.05,-14.97,-14.69,0,*78
1537531325.38,2499,21.81,74204.5,17.05,-14.75,-14.43,0,*7D
1537531326.58,2500,21.81,74208.8,17.07,-14.19,-13.93,0,*7E
1537531327.77,2501,21.81,74206.5,17.09,-14.61,-14.33,0,*73
1537531329.0,2502,21.81,74210.3,17.09,-14.15,-13.87,0,*7B
1537531330.23,2503,21.81,74208.0,17.13,-13.97,-13.69,0,*7C
1537531331.47,2504,21.81,74210.3,17.13,-14.55,-14.43,0,*7D
1537531332.72,2505,21.81,74208.8,17.15,-15.35,-15.07,0,*7C
1537531333.98,2506,21.81,74210.8,17.15,-16.13,-15.95,0,*73
1537531335.24,2507,21.81,74208.3,17.15,-15.39,-15.25,0,*72
1537531336.47,2508,21.81,74210.5,17.13,-17.07,-16.75,0,*72
1537531337.73,2509,21.81,74208.3,17.13,-17.21,-17.07,0,*73
1537531338.95,2510,21.81,74206.5,17.11,-18.45,-18.25,0,*7B
1537531340.15,2511,21.81,74210.3,17.09,-17.69,-17.31,0,*78
1537531341.35,2512,21.81,74214.0,17.07,-16.83,-16.59,0,*7F
1537531342.57,2513,21.81,74212.3,17.07,-15.67,-15.39,0,*72
1537531343.79,2514,21.81,74212.3,17.07,-15.01,-14.65,0,*7D
1537531345.05,2515,21.81,74214.0,17.05,-14.97,-14.83,0,*78
1537531346.27,2516,21.81,74212.3,17.07,-15.71,-15.57,0,*78
1537531347.5,2517,21.81,74218.5,17.07,-15.39,-15.25,0,*70
1537531348.77,2518,21.81,74212.3,17.11,-15.21,-15.01,0,*77
1537531350.0,2519,21.81,74214.5,17.09,-15.63,-15.43,0,*7F
1537531351.25,2520,21.81,74218.3,17.11,-15.63,-15.43,0,*7C
1537531352.51,2521,21.81,74214.0,17.09,-15.89,-15.81,0,*7E
1537531353.76,2522,21.81,74212.5,17.09,-16.09,-15.89,0,*7E
1537531355.02,2523,21.81,74214.5,17.09,-16.65,-16.69,0,*78
1537531356.21,2524,21.81,74214.0,17.07,-15.99,-15.71,0,*7B
1537531357.42,2525,21.81,74212.5,17.07,-15.99,-15.81,0,*75
1537531358.64,2526,21.81,74212.8,17.07,-15.85,-15.67,0,*73
1537531359.86,2527,21.81,74214.0,17.07,-16.23,-15.99,0,*7C
1537531361.08,2528,21.81,74214.3,17.07,-16.45,-16.23,0,*71
1537531362.33,2529,21.81,74214.5,17.05,-16.89,-16.65,0,*70
1537531363.55,2530,21.81,74214.8,17.05,-16.89,-16.79,0,*75
1537531364.77,2531,21.81,74210.8,17.05,-16.93,-16.59,0,*7D
1537531365.99,2532,21.81,74216.8,17.05,-16.59,-16.45,0,*75
1537531367.23,2533,21.81,74218.3,17.01,-17.69,-17.55,0,*72
1537531368.46,2534,21.81,74214.0,16.99,-17.83,-17.59,0,*7D
1537531369.68,2535,21.81,74214.8,16.99,-16.31,-15.95,0,*76
1537531370.88,2536,21.81,74212.5,16.99,-16.37,-16.03,0,*7F
1537531372.11,2537,21.81,74212.3,17.01,-15.71,-15.29,0,*74
1537531373.36,2538,21.81,74218.3,17.01,-15.71,-15.43,0,*77
1537531374.56,2539,21.81,74216.8,16.99,-16.03,-15.75,0,*75
1537531375.79,2540,21.81,74218.0,16.99,-17.69,-17.21,0,*75
1537531377.05,2541,21.81,74212.8,16.99,-17.25,-17.07,0,*78
1537531378.3,2542,21.81,74212.5,16.97,-17.41,-16.97,0,*7F
1537531379.53,2543,21.81,74212.0,16.99,-15.89,-15.63,0,*7E
1537531380.75,2544,21.81,74212.3,16.97,-17.87,-17.73,0,*78
1537531381.98,2545,21.81,74212.8,16.97,-17.31,-16.75,0,*73
1537531383.21,2546,21.81,74210.5,16.95,-16.09,-15.71,0,*7F
1537531384.46,2547,21.81,74214.0,16.95,-15.35,-14.97,0,*7B
1537531385.7,2548,21.81,74208.0,16.97,-15.21,-14.69,0,*72
1537531386.94,2549,21.81,74212.8,16.97,-15.07,-14.79,0,*76
1537531388.17,2550,21.81,74214.5,16.99,-15.89,-15.63,0,*7C
1537531389.4,2551,21.81,74210.0,16.99,-15.81,-15.63,0,*75
1537531390.6,2552,21.81,74206.8,16.99,-15.15,-14.65,0,*7C
1537531391.84,2553,21.81,74210.5,17.01,-15.11,-14.75,0,*78
1537531393.08,2554,21.81,74208.3,17.01,-15.39,-14.89,0,*76
1537531394.36,2555,21.81,74208.3,17.01,-14.55,-14.01,0,*7C
1537531395.57,2556,21.81,74208.0,17.05,-15.99,-15.75,0,*78
1537531396.79,2557,21.81,74212.8,17.05,-17.35,-16.93,0,*76
1537531398.05,2558,21.81,74212.0,16.99,-16.13,-15.81,0,*78
1537531399.3,2559,21.81,74214.8,17.01,-15.85,-15.53,0,*7A
1537531400.53,2560,21.81,74212.0,16.99,-15.63,-15.35,0,*78
1537531401.76,2561,21.81,74214.0,17.01,-15.53,-15.25,0,*7B
1537531403.01,2562,21.81,74208.8,16.99,-15.43,-15.01,0,*7F
1537531404.26,2563,21.81,74208.3,17.01,-14.55,-14.23,0,*79
1537531405.51,2564,21.81,74210.0,17.01,-15.01,-14.75,0,*7D
1537531406.76,2565,21.81,74210.0,17.01,-15.75,-15.39,0,*76
1537531408.01,2566,21.81,74210.0,17.01,-16.03,-15.57,0,*7F
1537531409.23,2567,21.81,74210.3,17.05,-14.61,-14.29,0,*74
1537531410.47,2568,21.81,74212.8,17.05,-14.97,-14.61,0,*7E
1537531411.72,2569,21.81,74212.8,17.05,-14.55,-14.15,0,*72
1537531412.97,2570,21.81,74212.3,17.07,-14.47,-13.97,0,*76
1537531414.19,2571,21.81,74210.8,17.07,-14.11,-13.79,0,*74
1537531415.47,2572,21.81,74212.3,17.11,-14.05,-13.61,0,*7C
1537531416.72,2573,21.81,74208.3,17.09,-14.05,-13.79,0,*7D
1537531417.95,2574,21.81,74210.5,17.11,-14.15,-13.73,0,*78
1537531419.18,2575,21.81,74210.0,17.13,-13.37,-12.89,0,*78
1537531420.4,2576,21.81,74204.0,17.15,-13.47,-13.11,0,*7A
1537531421.68,2577,21.81,74212.0,17.15,-13.33,-12.83,0,*72
1537531422.87,2578,21.81,74210.5,17.17,-13.47,-12.97,0,*79
1537531424.12,2579,21.81,74208.3,17.19,-13.19,-12.79,0,*7D
1537531425.39,2580,21.81,74214.8,17.19,-13.01,-12.61,0,*7B
1537531426.64,2581,21.81,74214.0,17.23,-13.97,-13.69,0,*75
1537531427.92,2582,21.81,74212.3,17.23,-14.83,-14.55,0,*7C
1537531429.17,2583,21.81,74210.8,17.23,-15.43,-15.15,0,*75
1537531430.44,2584,21.81,74210.5,17.23,-15.43,-15.01,0,*77
1537531431.69,2585,21.81,74208.0,17.27,-14.93,-14.65,0,*7D
1537531432.93,2586,21.81,74214.8,17.23,-14.97,-14.69,0,*72
1537531434.18,2587,21.81,74214.0,17.23,-15.43,-15.15,0,*71
1537531435.45,2588,21.81,74214.8,17.23,-16.65,-16.31,0,*7C
1537531436.65,2589,21.81,74212.0,17.21,-16.79,-16.37,0,*74
1537531437.88,2590,21.81,74212.3,17.19,-16.03,-15.75,0,*7F
1537531439.12,2591,21.81,74210.8,17.17,-14.43,-13.97,0,*7C
1537531440.34,2592,21.81,74210.8,17.19,-13.43,-13.07,0,*7F
1537531441.56,2593,21.81,74208.8,17.23,-12.89,-12.47,0,*75
1537531442.79,2594,21.81,74214.8,17.23,-13.73,-13.55,0,*74
1537531444.03,2595,21.81,74214.5,17.27,-13.65,-13.33,0,*76
1537531445.28,2596,21.81,74210.0,17.27,-13.79,-13.65,0,*7B
1537531446.5,2597,21.81,74214.8,17.29,-13.33,-13.07,0,*7E
1537531447.72,2598,21.81,74214.0,17.31,-13.15,-12.93,0,*70
1537531449.0,2599,21.81,74212.3,17.31,-12.79,-12.61,0,*77
1537531450.22,2600,21.81,74214.3,17.31,-14.15,-13.93,0,*74
1537531451.43,2601,21.81,74214.3,17.37,-13.47,-13.19,0,*71
1537531452.68,2602,21.81,74214.8,17.37,-13.61,-13.33,0,*7E
1537531453.93,2603,21.81,74212.0,17.37,-13.01,-12.75,0,*7A
1537531455.15,2604,21.81,74212.8,17.39,-13.23,-13.07,0,*77
1537531456.38,2605,21.81,74214.5,17.41,-13.29,-12.89,0,*74
1537531457.61,2606,21.81,74212.3,17.41,-12.97,-12.71,0,*74
1537531458.81,2607,21.81,74212.3,17.41,-14.33,-14.15,0,*79
1537531460.08,2608,21.81,74214.3,17.43,-14.97,-14.83,0,*75
1537531461.3,2609,21.81,74216.5,17.45,-14.65,-14.43,0,*73
1537531462.57,2610,21.81,74212.3,17.43,-14.01,-13.87,0,*70
1537531463.82,2611,21.81,74216.5,17.43,-15.07,-15.01,0,*7E
1537531465.04,2612,21.81,74216.3,17.43,-14.33,-14.15,0,*7F
1537531466.32,2613,21.81,74216.3,17.43,-13.83,-13.61,0,*76
1537531467.55,2614,21.81,74216.5,17.45,-13.51,-13.37,0,*7B
1537531468.74,2615,21.81,74214.3,17.45,-13.65,-13.43,0,*7E
1537531469.98,2616,21.81,74214.5,17.45,-14.51,-14.23,0,*7C
1537531471.21,2617,21.81,74218.3,17.45,-14.23,-14.01,0,*78
1537531472.44,2618,21.81,74218.5,17.49,-13.37,-13.19,0,*77
1537531473.67,2619,21.81,74216.0,17.49,-13.51,-13.37,0,*7A
1537531474.92,2620,21.81,74218.3,17.49,-13.79,-13.61,0,*79
1537531476.16,2621,21.81,74216.3,17.51,-13.93,-13.83,0,*79
1537531477.41,2622,21.81,74216.3,17.51,-14.61,-14.47,0,*7F
1537531478.63,2623,21.81,74216.0,17.53,-14.05,-13.93,0,*70
1537531479.88,2624,21.81,74216.3,17.53,-15.01,-14.83,0,*74
1537531481.13,2625,21.81,74218.5,17.53,-14.43,-14.05,0,*7C
1537531482.32,2626,21.81,74218.5,17.53,-14.33,-14.29,0,*76
1537531483.52,2627,21.81,74216.5,17.53,-16.37,-16.45,0,*79
1537531484.77,2628,21.81,74218.3,17.51,-16.83,-16.69,0,*75
1537531485.99,2629,21.81,74214.8,17.49,-15.99,-15.81,0,*70
1537531487.19,2630,21.81,74218.5,17.49,-16.55,-16.41,0,*74
1537531488.42,2631,21.81,74218.8,17.45,-15.81,-15.53,0,*73
1537531489.68,2632,21.81,74220.5,17.45,-15.43,-15.39,0,*72
1537531490.88,2633,21.81,74216.0,17.45,-16.55,-16.45,0,*7F
1537531492.13,2634,21.81,74218.8,17.43,-15.95,-15.85,0,*7E
1537531493.4,2635,21.81,74216.3,17.43,-16.17,-16.23,0,*79
1537531494.63,2636,21.81,74216.5,17.43,-16.79,-16.59,0,*7F
1537531495.83,2637,21.81,74218.3,17.41,-16.59,-16.45,0,*73
1537531497.08,2638,21.81,74218.0,17.39,-16.55,-16.23,0,*7F
1537531498.34,2639,21.81,74216.5,17.39,-16.41,-16.09,0,*73
1537531499.62,2640,21.81,74218.8,17.39,-17.17,-17.03,0,*74
1537531500.84,2641,21.81,74214.8,17.37,-15.99,-15.81,0,*77
1537531502.06,2642,21.81,74218.0,17.37,-16.65,-16.41,0,*7B
1537531503.29,2643,21.88,74216.8,17.37,-16.69,-16.37,0,*77
1537531504.53,2644,21.81,74216.5,17.37,-16.51,-16.23,0,*7E
1537531505.78,2645,21.81,74214.3,17.35,-15.39,-15.11,0,*72
1537531507.04,2646,21.81,74218.8,17.35,-16.41,-16.17,0,*78
1537531508.3,2647,21.81,74218.0,17.35,-16.41,-16.13,0,*7D
1537531509.55,2648,21.81,74216.3,17.35,-15.99,-15.81,0,*7C
1537531510.82,2649,21.81,74218.3,17.35,-15.81,-15.57,0,*7F
1537531512.04,2650,21.81,74216.0,17.33,-16.03,-15.89,0,*7B
1537531513.26,2651,21.81,74218.8,17.33,-16.37,-16.31,0,*7D
1537531514.51,2652,21.81,74216.5,17.33,-17.97,-17.79,0,*78
1537531515.73,2653,21.81,74216.8,17.31,-16.93,-16.55,0,*71
1537531516.96,2654,21.81,74216.5,17.33,-15.75,-15.57,0,*7E
1537531518.22,2655,21.81,74218.8,17.31,-16.03,-15.81,0,*74
1537531519.46,2656,21.81,74214.8,17.31,-16.79,-16.51,0,*74
1537531520.72,2657,21.81,74218.0,17.31,-16.41,-16.23,0,*7B
1537531521.97,2658,21.81,74218.3,17.31,-15.49,-15.21,0,*7E
1537531523.25,2659,21.88,74220.5,17.31,-16.09,-15.81,0,*72
1537531524.48,2660,21.81,74220.3,17.33,-15.53,-15.39,0,*75
1537531525.74,2661,21.81,74218.3,17.29,-15.89,-15.81,0,*7B
1537531526.94,2662,21.81,74220.0,17.29,-16.55,-16.41,0,*75
1537531528.19,2663,21.81,74216.5,17.27,-17.17,-16.97,0,*76
1537531529.39,2664,21.81,74218.8,17.29,-15.95,-15.67,0,*7B
1537531530.61,2665,21.81,74216.3,17.29,-15.35,-15.07,0,*76
1537531531.84,2666,21.81,74218.5,17.29,-15.15,-14.93,0,*7B
1537531533.07,2667,21.81,74216.0,17.31,-15.53,-15.25,0,*7D
1537531534.31,2668,21.88,74218.0,17.33,-14.97,-14.75,0,*7D
1537531535.53,2669,21.88,74222.5,17.33,-15.49,-15.21,0,*7E
1537531536.72,2670,21.81,74218.3,17.33,-16.37,-16.03,0,*7F
1537531537.95,2671,21.81,74220.0,17.33,-16.09,-15.75,0,*71
1537531539.23,2672,21.81,74218.5,17.35,-16.27,-16.13,0,*7B
1537531540.49,2673,21.81,74216.8,17.35,-16.55,-16.17,0,*7B
1537531541.72,2674,21.88,74220.3,17.31,-16.79,-16.55,0,*70
1537531542.97,2675,21.81,74216.0,17.31,-16.97,-16.69,0,*7E
1537531544.22,2676,21.81,74216.0,17.31,-16.23,-16.03,0,*7E
1537531545.47,2677,21.81,74218.0,17.31,-15.67,-15.35,0,*7A
1537531546.65,2678,21.81,74214.3,17.33,-14.69,-14.29,0,*74
1537531547.87,2679,21.88,74216.0,17.33,-15.49,-15.21,0,*7F
1537531549.09,2680,21.81,74214.5,17.33,-16.31,-15.99,0,*76
1537531550.31,2681,21.81,74212.5,17.33,-16.17,-16.03,0,*73
1537531551.54,2682,21.81,74212.5,17.31,-16.37,-16.03,0,*70
1537531552.77,2683,21.81,74214.8,17.31,-15.95,-15.75,0,*78
1537531554.02,2684,21.81,74212.3,17.31,-17.03,-16.83,0,*78
1537531555.3,2685,21.81,74214.0,17.31,-16.23,-16.09,0,*78
1537531556.55,2686,21.88,74214.5,17.29,-17.03,-17.03,0,*7A
1537531557.77,2687,21.88,74212.5,17.27,-18.99,-18.99,0,*75
1537531558.99,2688,21.88,74212.8,17.23,-19.75,-19.75,0,*7E
1537531560.27,2689,21.81,74212.0,17.19,-19.57,-19.41,0,*71
1537531561.47,2690,21.81,74212.3,17.13,-18.73,-18.73,0,*74
1537531562.72,2691,21.81,74212.5,17.13,-19.65,-19.81,0,*7F
1537531563.98,2692,21.88,74214.5,17.09,-20.49,-20.49,0,*7D
1537531565.26,2693,21.81,74212.3,17.05,-19.27,-19.27,0,*70
1537531566.46,2694,21.81,74216.0,16.99,-19.17,-19.07,0,*72
1537531567.71,2695,21.81,74214.5,16.97,-17.87,-17.79,0,*7D
1537531568.93,2696,21.81,74216.5,16.95,-16.69,-16.59,0,*7E
1537531570.18,2697,21.81,74216.5,16.95,-17.03,-17.11,0,*7F
1537531571.4,2698,21.81,74216.5,16.95,-18.49,-18.55,0,*7E
1537531572.63,2699,21.81,74216.8,16.91,-18.65,-18.55,0,*75
1537531573.86,2700,21.81,74212.3,16.91,-19.31,-19.47,0,*76
1537531575.09,2701,21.88,74218.8,16.87,-17.87,-17.59,0,*72
1537531576.31,2702,21.88,74218.0,16.87,-18.07,-17.93,0,*70
1537531577.56,2703,21.88,74216.3,16.85,-20.49,-20.63,0,*79
1537531578.84,2704,21.81,74208.5,16.81,-21.83,-21.97,0,*77
1537531580.06,2705,21.81,74208.8,16.73,-20.89,-20.99,0,*7F
1537531581.28,2706,21.88,74210.0,16.69,-20.25,-20.15,0,*75
1537531582.5,2707,21.81,74204.8,16.65,-22.57,-22.73,0,*7D
1537531583.73,2708,21.88,74210.5,16.61,-23.75,-24.11,0,*75
1537531585.0,2709,21.88,74210.0,16.51,-23.23,-23.53,0,*75
1537531586.23,2710,21.88,74208.8,16.45,-22.83,-23.19,0,*7D
1537531587.52,2711,21.81,74204.5,16.41,-22.21,-22.47,0,*7A
1537531588.78,2712,21.81,74206.8,16.33,-21.13,-21.23,0,*7F
1537531590.06,2713,21.88,74206.0,16.33,-19.85,-19.61,0,*77
1537531591.31,2714,21.88,74204.0,16.31,-17.79,-17.55,0,*76
1537531592.56,2715,21.81,74202.5,16.31,-17.79,-17.79,0,*79
1537531593.81,2716,21.88,74204.5,16.31,-17.55,-17.45,0,*7B
1537531595.01,2717,21.81,74204.0,16.31,-16.93,-16.79,0,*7F
1537531596.24,2718,21.81,74206.5,16.31,-17.03,-16.79,0,*78
1537531597.45,2719,21.81,74206.5,16.31,-16.59,-16.41,0,*7C
1537531598.68,2720,21.88,74208.5,16.33,-18.79,-18.69,0,*7C
1537531599.93,2721,21.88,74208.3,16.33,-18.35,-18.25,0,*7D
1537531601.14,2722,21.88,74208.3,16.31,-16.75,-16.55,0,*7F
1537531602.37,2723,21.88,74210.8,16.31,-16.75,-16.65,0,*7D
1537531603.63,2724,21.88,74210.8,16.29,-15.95,-15.81,0,*77
1537531604.91,2725,21.88,74210.3,16.37,-15.43,-15.43,0,*7C
1537531606.14,2726,21.88,74212.0,16.33,-16.37,-16.41,0,*7A
1537531607.36,2727,21.88,74210.5,16.37,-16.37,-16.45,0,*7B
1537531608.64,2728,21.88,74208.0,16.37,-16.17,-16.09,0,*7E
1537531609.88,2729,21.88,74210.5,16.39,-15.53,-15.43,0,*7F
1537531611.13,2730,21.81,74210.3,16.41,-14.43,-14.33,0,*7E
1537531612.36,2731,21.81,74208.5,16.41,-14.89,-14.89,0,*78
1537531613.57,2732,21.88,74210.0,16.43,-15.15,-15.15,0,*79
1537531614.8,2733,21.88,74212.3,16.43,-15.39,-15.29,0,*79
1537531616.06,2734,21.88,74212.0,16.45,-15.35,-15.39,0,*75
1537531617.32,2735,21.88,74214.5,16.45,-15.57,-15.57,0,*78
1537531618.52,2736,21.88,74208.0,16.49,-15.49,-15.49,0,*77
1537531619.78,2737,21.88,74212.8,16.47,-15.63,-15.39,0,*77
1537531621.01,2738,21.88,74210.3,16.49,-15.71,-15.85,0,*72
1537531622.22,2739,21.88,74208.8,16.49,-15.75,-15.71,0,*7C
1537531623.42,2740,21.88,74212.3,16.49,-16.03,-15.99,0,*76
1537531624.62,2741,21.88,74214.5,16.49,-16.45,-16.37,0,*72
1537531625.88,2742,21.88,74214.3,16.49,-15.89,-15.89,0,*74
1537531627.13,2743,21.88,74212.0,16.49,-15.89,-15.89,0,*75
1537531628.36,2744,21.81,74210.3,16.49,-15.57,-15.49,0,*7D
1537531629.62,2745,21.88,74210.5,16.51,-15.89,-15.99,0,*7B
1537531630.87,2746,21.88,74210.8,16.53,-15.81,-15.81,0,*7B
1537531632.12,2747,21.81,74208.3,16.53,-15.85,-15.85,0,*7A
1537531633.35,2748,21.88,74212.0,16.55,-15.95,-15.95,0,*73
1537531634.63,2749,21.88,74214.5,16.51,-17.07,-17.03,0,*72
1537531635.86,2750,21.88,74214.8,16.53,-16.41,-16.31,0,*7B
1537531637.15,2751,21.88,74214.5,16.51,-16.17,-16.17,0,*7F
1537531638.4,2752,21.88,74214.3,16.51,-16.37,-16.27,0,*7D
1537531639.69,2753,21.88,74210.3,16.51,-16.31,-16.17,0,*79
1537531640.94,2754,21.88,74214.5,16.51,-16.89,-16.65,0,*78
1537531642.21,2755,21.88,74210.5,16.51,-17.41,-17.35,0,*78
1537531643.47,2756,21.88,74210.5,16.51,-16.45,-16.31,0,*7B
1537531644.72,2757,21.88,74208.0,16.51,-16.45,-16.27,0,*7D
1537531645.96,2758,21.88,74214.5,16.49,-16.37,-16.17,0,*7D
1537531647.21,2759,21.88,74212.3,16.49,-16.65,-16.31,0,*7F
1537531648.41,2760,21.88,74214.5,16.49,-16.59,-16.37,0,*7C
1537531649.63,2761,21.88,74210.5,16.49,-16.93,-16.51,0,*7B
1537531650.89,2762,21.88,74212.0,16.51,-17.17,-16.89,0,*79
1537531652.1,2763,21.88,74210.5,16.49,-18.41,-18.07,0,*75
1537531653.34,2764,21.88,74212.0,16.47,-18.55,-18.17,0,*78
1537531654.58,2765,21.88,74210.0,16.45,-17.25,-16.83,0,*70
1537531655.78,2766,21.88,74212.5,16.43,-17.31,-16.97,0,*75
1537531657.01,2767,21.88,74208.8,16.45,-17.49,-17.03,0,*71
1537531658.23,2768,21.88,74212.3,16.45,-16.23,-15.67,0,*73
1537531659.44,2769,21.88,74210.8,16.45,-15.67,-15.07,0,*77
1537531660.64,2770,21.88,74210.0,16.45,-15.71,-15.11,0,*7F
1537531661.9,2771,21.88,74210.8,16.47,-15.29,-14.47,0,*73
1537531663.12,2772,21.88,74208.8,16.49,-15.01,-14.29,0,*7C
1537531664.34,2773,21.88,74208.0,16.49,-15.01,-14.37,0,*72
1537531665.56,2774,21.88,74212.5,16.49,-15.43,-14.61,0,*70
1537531666.82,2775,21.88,74214.0,16.51,-15.71,-14.97,0,*70
1537531668.06,2776,21.88,74212.3,16.53,-15.21,-14.55,0,*7A
1537531669.29,2777,21.88,74210.3,16.53,-15.85,-15.07,0,*73
1537531670.48,2778,21.88,74210.0,16.53,-15.99,-15.07,0,*71
1537531671.68,2779,21.88,74216.0,16.53,-15.95,-15.07,0,*7C
1537531672.93,2780,21.88,74212.5,16.53,-15.85,-14.97,0,*73
1537531674.12,2781,21.88,74212.8,16.53,-15.99,-15.11,0,*70
1537531675.31,2782,21.88,74212.3,16.53,-17.31,-16.45,0,*71
1537531676.53,2783,21.88,74216.8,16.53,-17.63,-16.83,0,*7D
1537531677.8,2784,21.88,74214.5,16.51,-19.23,-18.11,0,*77
1537531679.06,2785,21.88,74210.5,16.51,-17.41,-16.37,0,*76
1537531680.31,2786,21.88,74210.8,16.49,-16.51,-15.43,0,*7C
1537531681.52,2787,21.88,74210.5,16.49,-16.37,-15.29,0,*71
1537531682.78,2788,21.88,74212.3,16.49,-16.17,-15.01,0,*76
1537531684.01,2789,21.88,74214.5,16.49,-15.89,-14.89,0,*72
1537531685.27,2790,21.88,74212.3,16.51,-15.43,-14.23,0,*75
1537531686.51,2791,21.88,74210.5,16.51,-15.11,-13.87,0,*7A
1537531687.76,2792,21.88,74214.8,16.53,-16.31,-14.97,0,*7C
1537531689.02,2793,21.88,74214.8,16.51,-16.51,-15.15,0,*72
1537531690.23,2794,21.88,74212.8,16.53,-15.43,-14.11,0,*72
1537531691.45,2795,21.88,74214.5,16.53,-15.21,-13.65,0,*73
1537531692.72,2796,21.88,74212.8,16.59,-15.39,-13.87,0,*7F
1537531694.0,2797,21.88,74212.0,16.59,-15.89,-14.51,0,*79
1537531695.26,2798,21.88,74216.8,16.59,-15.95,-14.47,0,*7C
1537531696.5,2799,21.88,74214.0,16.59,-15.01,-13.51,0,*70
1537531697.77,2800,21.88,74214.0,16.59,-15.35,-13.87,0,*73
1537531699.01,2801,21.88,74214.0,16.61,-14.97,-13.29,0,*74
1537531700.27,2802,21.88,74216.3,16.63,-14.47,-12.89,0,*73
1537531701.52,2803,21.88,74218.0,16.61,-14.43,-12.75,0,*77
1537531702.72,2804,21.88,74218.8,16.65,-14.65,-12.97,0,*7C